Location: Slave Lake
(55.2830°N, 114.7830°W)
Time: 07:10:19
(UTC-06:00)

Amateur Radio Satellites - All Passes

Search period start: 26 July 2014 06:40
Search period end: 27 July 2014 06:40
Location: Slave Lake, 55.2830°N, 114.7830°W

Satellite Date Start Highest point End Downlink Frequencies (MHz)
Time Altitude Azimuth
AO-27 26 Jul 06:43:41 06:45:59 13° 317° (NW) 06:48:17 436.795 MHz FM
Uribyol 2 26 Jul 06:45:49 06:47:49 12° 318° (NW) 06:49:50 436.500 FM
Gurwin Techsat 1B 26 Jul 06:47:18 06:51:12 21° 309° (NW) 06:55:05 435.225 FM
STRAND 1 26 Jul 07:10:24 07:15:34 83° 71° (ENE) 07:20:45 ?
MaSat-1 26 Jul 07:10:45 07:16:03 68° 49° (NE) 07:21:19 437.345 MHz
Sapphire 26 Jul 07:11:45 07:16:06 24° 0° (N) 07:20:28 437.095 MHz 1200 baud AX-25 AFSK
ISS 26 Jul 07:18:39 07:21:12 20° 208° (SSW) 07:23:45 145.800 FM
AO-7 26 Jul 07:35:24 07:43:37 63° 301° (WNW) 07:51:45 29.400 - 29.500 MHz
JAS-2 26 Jul 07:44:13 07:50:27 49° 97° (E) 07:55:58 435.800 - 435.900 CW/SSB, 435.910 FM
PCSat 26 Jul 07:46:03 07:50:31 25° 10° (N) 07:54:59 145.825 MHz
JAS-1B 26 Jul 07:48:48 07:56:05 25° 326° (NNW) 08:03:02 435.800 - 435.900 CW/SSB
Hamsat 26 Jul 07:51:42 07:55:59 71° 103° (ESE) 08:00:17 145.90 MHz
Uosat F 26 Jul 08:18:08 08:21:26 18° 311° (NW) 08:24:44 435.120 FM
KITSAT 1 26 Jul 08:22:47 08:30:42 61° 123° (ESE) 08:38:39 435.175 FM
MaSat-1 26 Jul 08:48:32 08:53:08 30° 250° (WSW) 08:57:40 437.345 MHz
Saudisat 1A 26 Jul 08:49:14 08:51:49 15° 114° (ESE) 08:54:24 436.775 MHz
SO-67 26 Jul 08:49:57 08:53:24 53° 100° (E) 08:56:48 435.3500 MHz FM
STRAND 1 26 Jul 08:51:42 08:55:25 20° 272° (W) 08:59:10 ?
Sapphire 26 Jul 08:56:04 09:01:02 34° 26° (NNE) 09:05:58 437.095 MHz 1200 baud AX-25 AFSK
Hamsat 26 Jul 09:28:25 09:31:34 20° 303° (WNW) 09:34:44 145.90 MHz
AO-7 26 Jul 09:28:38 09:35:02 26° 326° (NW) 09:41:26 29.400 - 29.500 MHz
JAS-2 26 Jul 09:29:27 09:35:32 42° 301° (WNW) 09:40:56 435.800 - 435.900 CW/SSB, 435.910 FM
PCSat 26 Jul 09:29:56 09:35:12 46° 35° (NE) 09:40:25 145.825 MHz
JAS-1B 26 Jul 09:38:21 09:43:19 15° 352° (N) 09:48:12 435.800 - 435.900 CW/SSB
HO-68 26 Jul 09:44:31 09:50:22 26° 89° (E) 09:56:09 435.675 MHz FM
UKube-1 26 Jul 09:53:53 09:56:28 15° 87° (E) 09:59:01 145.840 MHz, 145.915 MHz
KITSAT 1 26 Jul 10:18:20 10:26:20 58° 328° (NNW) 10:34:21 435.175 FM
SO-67 26 Jul 10:23:43 10:26:11 18° 300° (WNW) 10:28:38 435.3500 MHz FM
Saudisat 1A 26 Jul 10:26:18 10:30:43 73° 134° (SE) 10:35:10 436.775 MHz
Sapphire 26 Jul 10:39:36 10:45:04 88° 230° (SW) 10:50:31 437.095 MHz 1200 baud AX-25 AFSK
Oscar 11 26 Jul 10:41:40 10:45:10 23° 92° (E) 10:48:39 145.825 FM, Beacon 2401.500 USB
FUNcube-1 26 Jul 10:55:44 10:57:50 13° 86° (E) 10:59:55 145.950 - 145.970 MHz USB
PCSat 26 Jul 11:13:29 11:18:47 54° 237° (WSW) 11:24:03 145.825 MHz
JAS-2 26 Jul 11:15:44 11:18:56 14° 326° (NW) 11:21:58 435.800 - 435.900 CW/SSB, 435.910 FM
AO-7 26 Jul 11:20:51 11:25:08 15° 353° (N) 11:29:25 29.400 - 29.500 MHz
JAS-1B 26 Jul 11:24:29 11:30:11 18° 19° (NNE) 11:35:56 435.800 - 435.900 CW/SSB
UKube-1 26 Jul 11:28:55 11:33:19 87° 289° (WNW) 11:37:41 145.840 MHz, 145.915 MHz
HO-68 26 Jul 11:31:46 11:38:59 87° 291° (WNW) 11:46:08 435.675 MHz FM
Saudisat 1A 26 Jul 12:06:33 12:10:40 36° 336° (NNW) 12:14:48 436.775 MHz
Oscar 19 26 Jul 12:10:41 12:13:49 17° 48° (NE) 12:16:57 437.125 CW, 437.150 USB
KITSAT 1 26 Jul 12:15:48 12:23:20 39° 356° (N) 12:30:51 435.175 FM
Oscar 11 26 Jul 12:17:26 12:21:41 55° 291° (WNW) 12:25:55 145.825 FM, Beacon 2401.500 USB
Sapphire 26 Jul 12:23:49 12:27:51 22° 250° (WSW) 12:31:52 437.095 MHz 1200 baud AX-25 AFSK
FUNcube-1 26 Jul 12:30:43 12:34:55 90° 107° (ESE) 12:39:06 145.950 - 145.970 MHz USB
Oscar 16 26 Jul 12:37:17 12:41:21 24° 54° (NE) 12:45:26 437.025 USB, Beacon 2401.1428
AO-Echo 26 Jul 12:49:08 12:52:39 18° 49° (NE) 12:56:10 ?
ITAMSAT 1 26 Jul 12:52:56 12:56:30 19° 49° (NE) 13:00:03 435.822 SSB
RS-15 26 Jul 12:55:03 12:59:50 14° 92° (E) 13:04:34 29.354 - 29.394 USB, Beacon 29.352 USB
PCSat 26 Jul 12:59:13 13:01:04 12° 258° (WSW) 13:02:54 145.825 MHz
UKube-1 26 Jul 13:06:07 13:08:57 17° 308° (NW) 13:11:47 145.840 MHz, 145.915 MHz
AO-7 26 Jul 13:09:46 13:14:53 18° 20° (NNE) 13:20:00 29.400 - 29.500 MHz
JAS-1B 26 Jul 13:09:50 13:17:52 34° 44° (NE) 13:26:16 435.800 - 435.900 CW/SSB
AO-27 26 Jul 13:10:37 13:14:44 24° 53° (NE) 13:18:51 436.795 MHz FM
Uribyol 2 26 Jul 13:12:17 13:16:27 25° 54° (NE) 13:20:38 436.500 FM
Gurwin Techsat 1B 26 Jul 13:18:32 13:21:33 16° 46° (NE) 13:24:35 435.225 FM
HO-68 26 Jul 13:20:03 13:25:57 29° 314° (NW) 13:31:51 435.675 MHz FM
Oscar 19 26 Jul 13:47:16 13:52:20 67° 69° (ENE) 13:57:26 437.125 CW, 437.150 USB
Saudisat 1A 26 Jul 13:47:38 13:51:19 25° 360° (N) 13:54:59 436.775 MHz
Oscar 11 26 Jul 13:55:32 13:57:01 12° 312° (NW) 13:58:30 145.825 FM, Beacon 2401.500 USB
FUNcube-1 26 Jul 14:08:12 14:10:47 16° 306° (NW) 14:13:22 145.950 - 145.970 MHz USB
KITSAT 1 26 Jul 14:12:40 14:20:32 50° 25° (NNE) 14:28:21 435.175 FM
Oscar 16 26 Jul 14:15:08 14:20:16 77° 255° (WSW) 14:25:26 437.025 USB, Beacon 2401.1428
AO-Echo 26 Jul 14:25:20 14:30:38 71° 70° (ENE) 14:35:57 ?
ITAMSAT 1 26 Jul 14:30:03 14:35:16 76° 70° (ENE) 14:40:30 435.822 SSB
SO-50 26 Jul 14:32:49 14:36:56 36° 124° (SE) 14:41:10 436.795 FM
TMSAT-1 26 Jul 14:33:26 14:38:09 34° 59° (ENE) 14:42:53 436.925 FM
Uosat F 26 Jul 14:44:26 14:47:19 16° 46° (NE) 14:50:12 435.120 FM
AO-27 26 Jul 14:48:32 14:53:47 80° 254° (WSW) 14:59:03 436.795 MHz FM
Uribyol 2 26 Jul 14:50:18 14:55:30 76° 255° (WSW) 15:00:44 436.500 FM
Gurwin Techsat 1B 26 Jul 14:55:22 15:00:34 59° 67° (ENE) 15:05:49 435.225 FM
JAS-1B 26 Jul 14:57:58 15:07:07 80° 68° (ENE) 15:17:06 435.800 - 435.900 CW/SSB
AO-7 26 Jul 14:58:05 15:05:30 38° 46° (NE) 15:12:56 29.400 - 29.500 MHz
RS-15 26 Jul 14:58:48 15:09:13 51° 117° (ESE) 15:19:31 29.354 - 29.394 USB, Beacon 29.352 USB
HO-68 26 Jul 15:08:46 15:11:31 13° 339° (NNW) 15:14:16 435.675 MHz FM
UOSAT-12 26 Jul 15:12:34 15:13:43 11° 108° (ESE) 15:14:52 437.025 FM, 437.400 FM
Saudisat 1A 26 Jul 15:27:51 15:31:58 36° 24° (NNE) 15:36:04 436.775 MHz
Oscar 19 26 Jul 15:28:01 15:32:10 25° 269° (W) 15:36:20 437.125 CW, 437.150 USB
Oscar 16 26 Jul 15:57:40 16:00:32 15° 276° (W) 16:03:25 437.025 USB, Beacon 2401.1428
AO-Echo 26 Jul 16:05:36 16:09:54 25° 270° (W) 16:14:14 ?
KITSAT 1 26 Jul 16:08:28 16:16:35 79° 230° (SW) 16:24:38 435.175 FM
ITAMSAT 1 26 Jul 16:11:21 16:15:22 22° 271° (W) 16:19:23 435.822 SSB
TMSAT-1 26 Jul 16:12:44 16:17:55 54° 260° (W) 16:23:09 436.925 FM
SO-50 26 Jul 16:12:55 16:17:23 57° 326° (NW) 16:21:59 436.795 FM
Uosat F 26 Jul 16:20:15 16:25:14 62° 68° (ENE) 16:30:14 435.120 FM
JAS-2 26 Jul 16:20:38 16:25:36 20° 42° (NE) 16:30:19 435.800 - 435.900 CW/SSB, 435.910 FM
AO-27 26 Jul 16:30:59 16:34:10 16° 275° (W) 16:37:21 436.795 MHz FM
Uribyol 2 26 Jul 16:32:59 16:35:54 15° 275° (W) 16:38:50 436.500 FM
Gurwin Techsat 1B 26 Jul 16:36:18 16:40:54 29° 267° (W) 16:45:33 435.225 FM
UOSAT-12 26 Jul 16:48:21 16:52:51 53° 129° (SE) 16:57:28 437.025 FM, 437.400 FM
AO-7 26 Jul 16:49:19 16:57:43 82° 249° (WSW) 17:06:09 29.400 - 29.500 MHz
JAS-1B 26 Jul 16:50:11 16:58:29 38° 272° (W) 17:07:31 435.800 - 435.900 CW/SSB
OPAL 26 Jul 16:55:32 16:59:26 22° 93° (E) 17:03:22 ?
Saudisat 1A 26 Jul 17:07:29 17:11:55 74° 226° (SW) 17:16:19 436.775 MHz
RS-15 26 Jul 17:10:09 17:21:11 75° 325° (NW) 17:32:13 29.354 - 29.394 USB, Beacon 29.352 USB
Hamsat 26 Jul 17:17:36 17:20:44 21° 58° (ENE) 17:23:53 145.90 MHz
SO-50 26 Jul 17:54:49 17:58:48 28° 350° (N) 18:02:51 436.795 FM
TMSAT-1 26 Jul 17:58:21 17:59:07 10° 281° (W) 17:59:53 436.925 FM
Uosat F 26 Jul 18:00:12 18:04:25 26° 268° (W) 18:08:40 435.120 FM
JAS-2 26 Jul 18:01:56 18:09:25 55° 64° (ENE) 18:16:19 435.800 - 435.900 CW/SSB, 435.910 FM
KITSAT 1 26 Jul 18:04:37 18:10:54 26° 254° (WSW) 18:17:10 435.175 FM
UOSAT-12 26 Jul 18:28:38 18:33:09 46° 331° (NNW) 18:37:45 437.025 FM, 437.400 FM
OPAL 26 Jul 18:33:50 18:38:52 75° 293° (WNW) 18:43:57 ?
HO-68 26 Jul 18:36:59 18:41:13 17° 32° (NNE) 18:45:27 435.675 MHz FM
AO-7 26 Jul 18:45:13 18:51:48 25° 272° (W) 18:58:25 29.400 - 29.500 MHz
Saudisat 1A 26 Jul 18:48:14 18:50:49 15° 246° (WSW) 18:53:24 436.775 MHz
Hamsat 26 Jul 18:52:10 18:56:20 66° 258° (WSW) 19:00:33 145.90 MHz
STRAND 1 26 Jul 19:14:40 19:17:55 17° 86° (E) 19:21:09 ?
RS-15 26 Jul 19:24:33 19:35:13 52° 357° (N) 19:45:59 29.354 - 29.394 USB, Beacon 29.352 USB
SO-67 26 Jul 19:29:55 19:33:19 58° 72° (ENE) 19:36:46 435.3500 MHz FM
SO-50 26 Jul 19:36:27 19:40:33 29° 14° (NNE) 19:44:43 436.795 FM
JAS-2 26 Jul 19:47:08 19:54:34 48° 263° (W) 20:01:32 435.800 - 435.900 CW/SSB, 435.910 FM
UOSAT-12 26 Jul 20:10:15 20:14:18 27° 354° (N) 20:18:22 437.025 FM, 437.400 FM
OPAL 26 Jul 20:13:39 20:17:04 19° 313° (NW) 20:20:30 ?
HO-68 26 Jul 20:20:38 20:27:19 44° 55° (NE) 20:34:00 435.675 MHz FM
STRAND 1 26 Jul 20:52:45 20:57:55 85° 107° (ESE) 21:03:02 ?
UKube-1 26 Jul 20:55:51 20:59:47 34° 62° (ENE) 21:03:44 145.840 MHz, 145.915 MHz
SO-67 26 Jul 21:04:37 21:06:46 16° 271° (W) 21:08:56 435.3500 MHz FM
SO-50 26 Jul 21:17:11 21:21:52 65° 37° (NE) 21:26:38 436.795 FM
RS-15 26 Jul 21:38:33 21:49:29 67° 29° (NNE) 22:00:40 29.354 - 29.394 USB, Beacon 29.352 USB
JAS-2 26 Jul 21:38:38 21:41:20 12° 285° (WNW) 21:44:00 435.800 - 435.900 CW/SSB, 435.910 FM
Oscar 11 26 Jul 21:43:31 21:47:37 44° 66° (ENE) 21:51:44 145.825 FM, Beacon 2401.500 USB
UOSAT-12 26 Jul 21:51:18 21:55:37 33° 19° (NNE) 21:59:55 437.025 FM, 437.400 FM
FUNcube-1 26 Jul 21:58:39 22:02:20 28° 62° (ENE) 22:05:57 145.950 - 145.970 MHz USB
HO-68 26 Jul 22:07:51 22:14:55 58° 258° (WSW) 22:22:00 435.675 MHz FM
UKube-1 26 Jul 22:31:50 22:35:58 40° 262° (W) 22:40:07 145.840 MHz, 145.915 MHz
STRAND 1 26 Jul 22:32:41 22:36:35 22° 307° (NW) 22:40:28 ?
MaSat-1 26 Jul 22:46:35 22:50:28 34° 112° (ESE) 22:54:52 437.345 MHz
SO-50 26 Jul 22:58:02 23:02:14 32° 238° (WSW) 23:06:30 436.795 FM
Oscar 11 26 Jul 23:20:15 23:23:59 28° 266° (W) 23:27:45 145.825 FM, Beacon 2401.500 USB
UOSAT-12 26 Jul 23:31:35 23:36:22 83° 41° (NE) 23:41:06 437.025 FM, 437.400 FM
FUNcube-1 26 Jul 23:34:27 23:38:37 46° 261° (W) 23:42:43 145.950 - 145.970 MHz USB
RS-15 26 Jul 23:51:17 00:01:59 62° 237° (WSW) 00:13:01 29.354 - 29.394 USB, Beacon 29.352 USB
HO-68 27 Jul 00:00:35 00:04:16 15° 280° (W) 00:07:58 435.675 MHz FM
MaSat-1 27 Jul 00:23:18 00:27:40 52° 316° (NW) 00:32:38 437.345 MHz
UOSAT-12 27 Jul 01:12:19 01:16:04 24° 242° (WSW) 01:19:48 437.025 FM, 437.400 FM
Lituanica SAT-1 27 Jul 01:28:14 01:29:31 16° 161° (SSE) 01:30:48 437.275 MHz beacon
Sapphire 27 Jul 01:30:32 01:34:02 18° 107° (ESE) 01:37:33 437.095 MHz 1200 baud AX-25 AFSK
ISS 27 Jul 01:42:13 01:43:52 13° 144° (SE) 01:45:31 145.800 FM
Oscar 19 27 Jul 01:52:47 01:55:27 14° 84° (E) 01:58:07 437.125 CW, 437.150 USB
MaSat-1 27 Jul 02:02:30 02:06:10 21° 340° (NNW) 02:10:06 437.345 MHz
PCSat 27 Jul 02:02:38 02:07:18 31° 114° (ESE) 02:12:01 145.825 MHz
RS-15 27 Jul 02:04:56 02:12:01 20° 262° (W) 02:19:15 29.354 - 29.394 USB, Beacon 29.352 USB
Oscar 16 27 Jul 02:19:51 02:23:56 23° 90° (E) 02:28:00 437.025 USB, Beacon 2401.1428
AO-Echo 27 Jul 02:26:52 02:29:33 14° 83° (E) 02:32:12 ?
ITAMSAT 1 27 Jul 02:36:40 02:39:49 16° 85° (E) 02:42:58 435.822 SSB
JAS-1B 27 Jul 02:36:44 02:43:50 22° 76° (ENE) 02:50:21 435.800 - 435.900 CW/SSB
OPAL 27 Jul 02:40:33 02:44:06 20° 48° (NE) 02:47:41 ?
AO-27 27 Jul 02:54:44 02:58:46 22° 89° (E) 03:02:45 436.795 MHz FM
Uribyol 2 27 Jul 02:56:06 03:00:13 23° 90° (E) 03:04:17 436.500 FM
Lituanica SAT-1 27 Jul 02:59:33 03:01:15 26° 180° (S) 03:02:57 437.275 MHz beacon
Gurwin Techsat 1B 27 Jul 03:05:34 03:08:10 14° 82° (E) 03:10:46 435.225 FM
Sapphire 27 Jul 03:11:15 03:16:39 76° 128° (SE) 03:22:06 437.095 MHz 1200 baud AX-25 AFSK
ISS 27 Jul 03:16:49 03:19:54 34° 164° (SSE) 03:22:59 145.800 FM
Oscar 19 27 Jul 03:30:35 03:35:46 72° 104° (ESE) 03:40:56 437.125 CW, 437.150 USB
MaSat-1 27 Jul 03:42:05 03:45:20 17° 4° (N) 03:48:43 437.345 MHz
PCSat 27 Jul 03:44:59 03:50:24 70° 316° (NW) 03:55:51 145.825 MHz
Oscar 16 27 Jul 03:58:40 04:03:49 72° 290° (WNW) 04:08:58 437.025 USB, Beacon 2401.1428
AO-Echo 27 Jul 04:04:07 04:09:20 73° 104° (ESE) 04:14:20 ?
ITAMSAT 1 27 Jul 04:14:57 04:20:11 81° 106° (ESE) 04:25:22 435.822 SSB
OPAL 27 Jul 04:17:26 04:22:23 85° 69° (ENE) 04:27:24 ?
TMSAT-1 27 Jul 04:21:00 04:25:55 37° 95° (E) 04:30:47 436.925 FM
Uosat F 27 Jul 04:23:07 04:24:18 11° 81° (E) 04:25:29 435.120 FM
JAS-1B 27 Jul 04:26:29 04:36:19 69° 102° (ESE) 04:44:58 435.800 - 435.900 CW/SSB
Lituanica SAT-1 27 Jul 04:31:43 04:32:58 15° 199° (SSW) 04:34:13 437.275 MHz beacon
AO-27 27 Jul 04:33:39 04:38:52 75° 290° (WNW) 04:44:02 436.795 MHz FM
Uribyol 2 27 Jul 04:35:03 04:40:14 71° 291° (WNW) 04:45:22 436.500 FM
AO-7 27 Jul 04:43:17 04:49:32 23° 86° (E) 04:55:43 29.400 - 29.500 MHz
Gurwin Techsat 1B 27 Jul 04:43:52 04:49:12 68° 103° (ESE) 04:54:29 435.225 FM
ISS 27 Jul 04:53:03 04:56:17 44° 184° (S) 04:59:31 145.800 FM
Sapphire 27 Jul 04:55:31 05:00:33 37° 331° (NNW) 05:05:36 437.095 MHz 1200 baud AX-25 AFSK
STRAND 1 27 Jul 05:01:44 05:04:02 13° 43° (NE) 05:06:21 ?
Oscar 19 27 Jul 05:10:31 05:14:43 26° 305° (NW) 05:18:55 437.125 CW, 437.150 USB
MaSat-1 27 Jul 05:20:04 05:24:23 26° 27° (NNE) 05:28:48 437.345 MHz
PCSat 27 Jul 05:29:58 05:34:42 29° 340° (NNW) 05:39:27 145.825 MHz
Oscar 16 27 Jul 05:39:04 05:42:25 18° 311° (NW) 05:45:45 437.025 USB, Beacon 2401.1428
AO-Echo 27 Jul 05:43:28 05:47:40 25° 305° (NW) 05:51:45 ?
ITAMSAT 1 27 Jul 05:55:08 05:59:12 24° 307° (NW) 06:03:14 435.822 SSB
OPAL 27 Jul 05:58:31 06:01:57 19° 269° (W) 06:05:25 ?
Uosat F 27 Jul 05:59:14 06:04:14 58° 102° (ESE) 06:09:10 435.120 FM
TMSAT-1 27 Jul 06:00:55 06:06:00 47° 296° (WNW) 06:11:03 436.925 FM
AO-27 27 Jul 06:14:08 06:17:39 19° 311° (NW) 06:21:09 436.795 MHz FM
Uribyol 2 27 Jul 06:15:35 06:18:56 18° 312° (NW) 06:22:17 436.500 FM
JAS-1B 27 Jul 06:17:14 06:26:25 47° 306° (NW) 06:34:45 435.800 - 435.900 CW/SSB
Gurwin Techsat 1B 27 Jul 06:24:21 06:28:49 28° 304° (NW) 06:33:16 435.225 FM
ISS 27 Jul 06:29:43 06:32:35 26° 203° (SSW) 06:35:26 145.800 FM
Hamsat 27 Jul 06:31:38 06:34:06 15° 86° (E) 06:36:35 145.90 MHz
